Regional Weather Roundup
Issued by NWS New Orleans/Baton Rouge, LA

Home | Current Version | Previous Version | Text Only | Print | Product List | Glossary Off
Versions: 1 2 3 4 5 6 7 8 9 10 11 12 13 14 15 16 17 18 19 20 21 22 23 24 25 26 27 28 29 30 31 32 33 34 35 36 37 38 39 40 41 42 43 44 45 46 47 48 49 50

775
ASUS44 KLIX 010805
RWRLIX
NEW ORLEANS REGIONAL WEATHER ROUNDUP
NATIONAL WEATHER SERVICE NEW ORLEANS LA
300 AM CDT WED OCT 01 2014

NOTE: "FAIR" INDICATES FEW OR NO CLOUDS BELOW 12,000 FEET WITH NO
      SIGNIFICANT WEATHER AND/OR OBSTRUCTIONS TO VISIBILITY.
      SKY/WX - SKY CONDITION AND SIGNIFICANT WEATHER.
      TMP - AIR TEMPERATURE.     DP    - DEWPOINT TEMPERATURE.
      RH  - RELATIVE HUMIDITY.   PRES  - PRESSURE.
      HI  - HEAT INDEX.          WCI   - WIND CHILL INDEX.

*  THESE STATIONS ARE NOT NWS OR FAA STATIONS AND ARE NOT UNDER
   NWS QUALITY CONTROL.

LAZ038-040-048-061>063-065>067-069-010900-
SOUTHEAST LOUISIANA

CITY           SKY/WX    TMP DP  RH WIND       PRES   REMARKS
N.O. AUDUBON     N/A     76  75  98 MISG        N/A
N.O. INTL ARPT PTCLDY    75  71  87 CALM      29.87F
N.O. LAKEFRONT CLEAR     76  72  87 SE5       29.88F
N.O. DOWNTOWN*   N/A     77  70  78 SE6       29.88F
SLIDELL        CLEAR     69  66  90 CALM      29.88F
BATON ROUGE    CLEAR     73  71  93 E5        29.88S
BOOTHVILLE     CLEAR     77  74  90 E5        29.88F
BELLE CHASSE   CLEAR     74  70  87 CALM      29.87F
BOGALUSA*      FOG       69  66  91 CALM      29.91S VSB 1/4
GALLIANO*      NOT AVBL
NEW ROADS*       N/A     73  72  98 CALM      29.87S FOG
GONZALES*        N/A     74  74  99 CALM      29.87S
HAMMOND*       CLEAR     70  68  94 CALM      29.90S
HOUMA*         CLEAR    N/A N/A N/A CALM      29.87S
PORT FOURCHON* PTSUNNY   81  73  78 SE8       29.90S

$$

MSZ070-080>082-010900-
SOUTHERN MISSISSIPPI

CITY           SKY/WX    TMP DP  RH WIND       PRES   REMARKS
MCCOMB         CLOUDY    72  70  93 SE6       29.90S FOG
GULFPORT       PTCLDY    71  69  93 CALM      29.88F
BILOXI         PTCLDY    73  73 100 E3        29.89F
PASCAGOULA     CLEAR     66  65  96 CALM      29.89F

$$

COASTAL OBSERVATIONS
LAKE AND NEARSHORE STATIONS

STATION/POSITION TIME  TEMP    WIND        PRES    WAVE
                       AIR SEA DIR/SP/G            HT/PER
                 (UTC) (F)     (DEG/KT/KT) (MB)    (FT/S)
PASCAGOULA       0800   77     120/  3/  5 1011.8
WAVELAND YACHT   0800   78     160/  8/ 10 1011.3
GRAND ISLE       0800   79 82  120/  5/ 10 1012.0
SOUTHWEST PASS   0800   80 85  110/ 13/ 14 1011.7
NEW CANAL        0800   76 77  120/  1/  4 1012.2
SHELL BEACH      0800   77 76  120/  6/  9 1011.6

OFFSHORE STATIONS

STATION/POSITION TIME  TEMP    WIND        PRES    WAVE
                       AIR SEA DIR/SP/G            HT/PER
                 (UTC) (F)     (DEG/KT/KT) (MB)    (FT/S)
64 S DAUPHIN ISL 0750   79 82  120/  6/ 10 1012.3    2/ 5

$$




USA.gov is the U.S. government's official web portal to all federal, state and local government web resources and services.